Location: Newark
(42.8481°N, 0.4872°E)
Time: 06:00:20
(UTC+00:00)

Explorer 7 - Pass Details

Date: 01 November 2020
Orbit: 484 x 678 km, 50.3° (Epoch: 30 November)

Event Time Altitude Azimuth Distance (km) Brightness Sun altitude
Rises 19:09:21 0° 289° (WNW) 2,627 11.5 -26.0°
Reaches altitude 10° 19:11:57 10° 272° (W) 1,768 10.4 -26.5°
Maximum altitude 19:14:52 20° 225° (SW) 1,304 9.1 -27.0°
Enters shadow 19:15:53 18° 205° (SSW) 1,381 9.0 -27.2°
